Terug naar catalogus

ONEWEB-0065

ActiefCommunicatiePO
NORAD 45164·PAYLOAD·🇬🇧 United Kingdom

Gelanceerd Feb 6, 2020 vanaf Baikonur Cosmodrome

Loading…

Volgende Passages (komende 24 uur)

TLE

VersSource: CelesTrak SupGP

Epoch: Sep 14, 2026, 20:32 UTC

1 45164C 20008AK  26257.85573331 -.00000835  00000+0 -23959-2 0  2571
2 45164  87.8914  18.4245 0001781 112.1622   1.4861 13.10375023    11

Volg ONEWEB-0065 in realtime met AllMySat

Download on the App Store